Погода в Русской Паевке

Россия / Республика Мордовия     53°54′02″N   44°18′38″E
темп.,
°C
ветер,
м/с
пор.,
м/с
влажн.,
%
обл.,
%
осадки,
мм/ч
давл.,
гПа
погр.,
м
14 мая, пт
пт1400:00+14ююв229099 0.0 101811
03:00+13вюв1191100 0.0 101911
06:00+15в1291100 0.0 101866
09:00+19ююв228162 0.0 1018425
12:00+23ююз34655 0.0 10181149
15:00+24ю34576 0.0 10181332
18:00+23юв3574100 0.0 1016118
21:00+18юв3481100 0.3 101650
15 мая, сб
сб1500:00+17юв4108893 0.0 1015183
03:00+17ююв5147817 0.0 1014311
06:00+17ююв61572100 0.2 1015355
09:00+20ю61367100 0.2 1015548
12:00+23ю7136194 0.0 1015876
15:00+25ю6125839 0.0 10151416
18:00+22ю497255 0.0 1014295
21:00+17ююв467853 0.0 101594
16 мая, вс
вс1600:00+16ю33816 0.0 101532
03:00+15ююз118968 0.0 101511
06:00+17ю118638 0.0 101654
09:00+20ююв2277100 0.0 1016402
12:00+24ююв356681 0.0 1016988
15:00+25ю465766 0.1 10151470
18:00+22ю377165 0.0 1015210
21:00+17ююз3473100 0.0 101641
17 мая, пн
пн1700:00+16ю227675 0.0 101611
03:00+15вюв2275100 0.0 101711
06:00+17вюв357762 0.0 101794
09:00+22ююв466060 0.0 1017332
12:00+25ююв595016 0.0 1017989
15:00+26ююв58525 0.0 10161242
18:00+23юв376814 0.0 1016191
21:00+18юв346887 0.0 101640
18 мая, вт
вт1800:00+17юв466679 0.0 101676
03:00+16юв4664100 0.0 101572
06:00+16вюв412725 0.0 1015211
09:00+21юв611623 0.0 1014389
12:00+26ююв59505 0.0 1014813
15:00+27юв484970 0.0 1013997
18:00+23юв512665 0.0 1012335
21:00+18юв411716 0.0 1012170